Погода в Нижнем

Россия / Курганская область     54°51′38″N   64°28′26″E
темп.,
°C
ветер,
м/с
пор.,
м/с
влажн.,
%
обл.,
%
осадки,
мм/ч
давл.,
гПа
погр.,
м
14 апреля, ср
ср1423:00+5ююз48945 0.0 1039174
02:00+5ююз499610 0.0 1037189
05:00+4юз499425 0.0 1037185
08:00+6юз588265 0.0 1036229
11:00+11юз566322 0.0 1034467
14:00+15зюз565115 0.0 1032735
17:00+16зюз454914 0.0 1031814
20:00+11юз33665 0.0 103037
15 апреля, чт
чт1523:00+9юз34695 0.0 103046
02:00+8юз34725 0.0 102956
05:00+7юз34745 0.0 102944
08:00+9юз36695 0.0 1028157
11:00+14юз464811 0.0 1026475
14:00+17юз56335 0.0 1025809
17:00+18зюз46345 0.0 1023853
20:00+12юз44495 0.0 102242
16 апреля, пт
пт1623:00+10юз45575 0.0 102162
02:00+9зюз3664100 0.0 102071
05:00+8з3369100 0.0 101922
08:00+10сз237097 0.0 101996
11:00+14ссв566543 0.0 1020833
14:00+11св787470 0.0 1021710
17:00+7св7975100 0.0 1023705
20:00+6св497645 0.0 1024488
17 апреля, сб
сб1723:00+4ссв358423 0.0 102486
02:00+3св36848 0.0 1023113
05:00+1св22785 0.0 102327
08:00+4св22652 0.0 1022186
11:00+8ссз34475 0.0 10211257
14:00+10сз56395 0.0 10211792
17:00+10ссз673781 0.0 10202068
20:00+6с355685 0.0 102096
18 апреля, вс
вс1823:00+4всв226685 0.0 102015
02:00+4юз356964 0.0 101887
05:00+3сз612716 0.0 1017379
08:00+3сз710665 0.0 10171040
11:00+5сз10143869 0.0 10172319
14:00+5сз121434100 0.0 10182840
17:00+1с10135398 0.0 10231957
20:00−2ссв8145225 0.1 10271409